Weather Roundup
Issued by NWS

Home | Current Version | Previous Version | Text Only | Print | Product List | Glossary On
Versions: 1 2 3 4 5 6 7 8 9 10 11 12 13 14 15 16 17 18 19 20 21 22 23 24 25 26 27 28 29 30 31 32 33 34 35 36 37 38 39 40 41 42 43 44 45 46 47 48 49 50
000
NZUS93 KARX 250710
HRRWXR

CURRENT HOURLY OBSERVATIONS ACROSS
MUCH OF THE UPPER MISSISSIPPI VALLEY
NATIONAL WEATHER SERVICE LA CROSSE WI
200 AM CDT SAT OCT 25 2014


...SOUTHEAST MINNESOTA...


CITY           SKY/WX    TMP DP  RH WIND       PRES   REMARKS
ROCHESTER      CLEAR     52  47  83 W8        29.94R
ROCHESTER/MAYO PTSUNNY   56  46  67 W10       29.93R
WINONA         CLEAR     54  52  94 N7        29.91R FOG
AUSTIN         FAIR      50  50 100 W7        29.95R
ALBERT LEA     PTCLDY    55  43  62 W5        29.96S
DODGE CENTER   PTCLDY    52  45  76 W9        29.94R
PRESTON        CLEAR     53  48  86 W13       29.93R
OWATONNA       CLEAR     48  43  81 CALM      29.95R
FARIBAULT      PTCLDY    55  45  67 W6        29.95R
$$

...ELSEWHERE IN MINNESOTA...


CITY           SKY/WX    TMP DP  RH WIND       PRES   REMARKS
MINNEAPOLIS    MOCLDY    60  41  49 NW12      29.92R
INTNL FALLS    CLEAR     51  32  48 W16G25    29.77R
DULUTH         CLEAR     55  34  45 W14       29.80R
RED WING         N/A     46  45  93 W3        29.91R FOG
REDWOOD FALLS  MOCLDY    58  40  51 NW10      29.99R
MANKATO        PTCLDY    55  37  50 NW9       29.97R
WORTHINGTON    MOCLDY    55  39  54 NW6       30.03S
FAIRMONT       PTCLDY    57   3  11 NW9       29.99S
$$

...SOUTHWEST WISCONSIN...


CITY           SKY/WX    TMP DP  RH WIND       PRES   REMARKS
LA CROSSE      CLEAR     57  55  93 S7        29.89S FOG
PRAIRIE DU CHI CLOUDY    60  57  89 W6        29.92S FOG
BOSCOBEL       MOCLDY    59  56  89 S6        29.92R FOG
LONE ROCK      CLOUDY    62  56  80 W6        29.91S HAZE
PLATTEVILLE    CLOUDY    58  57  97 W9        29.93S
FORT MC COY    PTCLDY    55  54  97 CALM      29.90R FOG
VIROQUA        CLOUDY    56  56 100 W9        29.91S
WIS DELLS      CLOUDY    57  54  89 W9        29.88R FOG
$$

...ELSEWHERE IN WISCONSIN...


CITY           SKY/WX    TMP DP  RH WIND       PRES   REMARKS
MILWAUKEE      PTCLDY    55  48  77 W7        29.87F
MADISON        CLOUDY    58  55  90 W5        29.89S FOG
GREEN BAY      CLOUDY    53  51  93 SW5       29.82S
EAU CLAIRE     CLEAR     50  49  96 W3        29.88R FOG
BLACK RVR FLS  PTSUNNY   55  55 100 SW7       29.87S FOG
MEDFORD        CLOUDY    53  52  97 W10G17    29.84R FOG
WAUSAU         CLOUDY    56  53  90 W7        29.82S FOG
WIS RAPIDS     CLOUDY    55  54  96 W9        29.87R FOG
MARSHFIELD     CLOUDY    55  53  93 W10       29.84S FOG
RICE LAKE      CLEAR     46  45  96 CALM      29.88R FOG
$$

...NORTHEAST IOWA...


CITY           SKY/WX    TMP DP  RH WIND       PRES   REMARKS
DECORAH        CLOUDY    55  55 100 CALM      29.93R FOG
MASON CITY     CLEAR     49  44  83 W12       29.99R
CHARLES CITY   CLEAR     48  48 100 W6        29.96R FOG
OELWEIN        FOG       55  55 100 W5        29.96S VSB<1/4
$$

...ELSEWHERE IN IOWA...


CITY           SKY/WX    TMP DP  RH WIND       PRES   REMARKS
DES MOINES     FOG       53  51  93 NW3       29.99R VSB 1
IOWA CITY      FOG       52  52 100 CALM      29.96S VSB 1/4
FORT DODGE     CLEAR     48  43  81 CALM      30.00R
$$

...NORTHERN ILLINOIS...


CITY           SKY/WX    TMP DP  RH WIND       PRES   REMARKS
CHICAGO-OHARE  PTCLDY    57  50  77 SW6       29.89F
CHICAGO-MIDWAY MOCLDY    59  52  77 SW7       29.90F
MOLINE         FOG       51  49  92 CALM      29.93F VSB<1/4
ROCKFORD       CLEAR     54  51  90 W3        29.93S
PEORIA         CLOUDY    58  51  78 SW5       29.95S
$$

NOTE: "FAIR" INDICATES FEW OR NO CLOUDS BELOW 12,000 FEET WITH NO
SIGNIFICANT WEATHER AND/OR OBSTRUCTIONS TO VISIBILITY. WIND
SPEEDS ARE IN MILES-PER-HOUR.



USA.gov is the U.S. government's official web portal to all federal, state and local government web resources and services.